Location: 10048 Water Well
(33.8501°N, 106.8364°W)
Time: 22:21:20
(UTC+00:00)

OAO 3 Copernicus - Pass Details

Date: 11 December 2025
Orbit: 689 x 698 km, 35.0° (Epoch: 21 January)

Event Time Altitude Azimuth Distance (km) Brightness Sun altitude
Exits shadow 12:24:37 42° 273° (W) 979 4.6 -19.8°
Maximum altitude 12:26:18 81° 354° (N) 702 4.2 -19.4°
Drops below altitude 10° 12:31:19 10° 82° (E) 2,135 7.8 -18.4°
Sets 12:33:43 0° 83° (E) 3,050 8.9 -17.9°
